Погода в Копыле

Россия / Воронежская область     51°39′24″N   41°02′07″E
темп.,
°C
ветер,
м/с
пор.,
м/с
влажн.,
%
обл.,
%
осадки,
мм/ч
давл.,
гПа
погр.,
м
23 апреля, пт
пт2300:00+10ю3470100 0.0 102158
03:00+9ю3477100 0.0 102176
06:00+9ююв347997 0.0 102171
09:00+13ююв456499 0.0 1021459
12:00+15ююв5654100 0.6 10191437
15:00+15ю565699 2.6 10181353
18:00+13юв466887 1.8 1016240
21:00+10ююв468423 4.0 1016107
24 апреля, сб
сб2400:00+10ююв488636 0.3 1014183
03:00+8ю51187100 0.3 1012266
06:00+8ююз41190100 0.0 1011455
09:00+9ю81183100 0.6 10091280
12:00+4зсз71195100 1.7 1011696
15:00+9з696396 2.1 10111518
18:00+8з59617 0.9 10111182
21:00+4зюз512745 1.0 1013401
25 апреля, вс
вс2500:00+3зюз713796 0.0 1014695
03:00+2зюз714805 0.0 1015751
06:00+1зюз714825 0.0 1016601
09:00+5з811615 0.0 10171184
12:00+9з81143100 0.0 10182726
15:00+10зюз7936100 0.0 10172643
18:00+9юз69465 0.0 1017823
21:00+5ююз512595 0.0 1017262
26 апреля, пн
пн2600:00+4юз5136269 0.0 1017381
03:00+4з3689100 0.1 1017716
06:00+4юз1292100 0.0 1016100
09:00+6ююз2282100 0.0 1016652
12:00+8сз337888 0.1 1015634
15:00+6ссз4491100 0.2 1014451
18:00+6ссз2386100 0.0 1013425
21:00+5сз3389100 0.3 1012435
27 апреля, вт
вт2700:00+2зсз4798100 4.4 1011364
03:00+2зюз469598 7.0 1011280
06:00+2юз410935 0.0 1011306
09:00+6зюз696774 0.3 10101003
12:00+7з10126570 1.1 10111633
15:00+9з91141100 1.1 10113176
18:00+7зюз6957100 0.4 1011981
21:00+3зюз497866 0.9 1013214